Location: Kawakawa
(35.3830°S, 174.0670°E)
Time: 01:10:16
(UTC+13:00)

ADEOS Rocket - Pass Details

Date: 24 January 2019
Orbit: 859 x 1307 km, 98.7° (Epoch: 19 February)

Event Time Altitude Azimuth Distance (km) Brightness Sun altitude
Exits shadow 21:18:53 10° 64° (ENE) 2,573 4.5 -8.3°
Reaches altitude 10° 21:18:55 10° 64° (ENE) 2,559 4.5 -8.3°
Maximum altitude 21:23:10 23° 114° (ESE) 1,794 4.1 -9.0°
Drops below altitude 10° 21:27:22 10° 163° (SSE) 2,524 5.4 -9.8°
Sets 21:30:13 0° 177° (S) 3,475 6.3 -10.2°
